SBSJSBSP

Guest
Details From SBSJ - Sao Jose Dos Campos
To SBSP - Sao Paulo Congonhas
Flight Number -
Tags decoded
Created
Modified
Stats Distance 51 nm / 94 km
Max Altitude 0 ft / 0 m
Waypoints 3
Social Downloads 0
Likes 0
Share VATSIM

Download

Looking for another format? Having issues loading an existing format? Contact us
Advertisement - Login to hide

Notes

Requested: SBSJ BCO SBSP

Route

SBSJ BCO SBSP

ID Type Via Altitude Latitude Longitude Leg Dist Tot Dist Heading (true) Name
O SBSJ APT - 0 ft / 0 m -23.22817˚ -45.86274˚ - 0 nm - Sao Jose Dos Campos
BCO VOR - 0 ft / 0 m -23.40633˚ -46.38550˚ 30 nm 30 nm 250° / 250° BONSUCESSO VOR-DME
O SBSP APT - 0 ft / 0 m -23.62669˚ -46.65538˚ 19 nm 50 nm 228° / 228° Sao Paulo Congonhas

Altitude Profile

Advertisement - Login to hide

SBSJ

Details ICAO SBSJ (SJK)
Name Sao Jose Dos Campos
Region Brazil
Timezone America/Sao_Paulo (UTC-3.0)
Stats Elevation 2,120 ft / 646 m (AMSL)
Location -23.228171° -45.862738°
Runways 1
Magnetic Variation 21.761° W

METAR

SBSJ 252000Z 13010KT 9000 FEW035 20/14 Q1022

Decode

TAF

TAF SBSJ 251500Z 2518/2618 15010KT 7000 BKN023 TN14/2609Z TX24/2617Z BECMG 2600/2602 13005KT SCT020 BECMG 2606/2608 07005KT 4000 BR BKN010 BECMG 2610/2613 04005KT 7000 NSW SCT020 BECMG 2615/2617 14010KT BKN030 RMK PHC

Decode

Departure Runways

ID Width Length Bearing (true) Bearing (mag) Surface Threshold Offset Overrun Length
15 148 ft / 45 m 8,741 ft / 2,664 m 135.13° 156.89° Asphalt 0 ft / 0 m 0 ft / 0 m
33 148 ft / 45 m 8,741 ft / 2,664 m 315.12° 336.88° Asphalt 0 ft / 0 m 0 ft / 0 m

SBSP

Details ICAO SBSP (CGH)
Name Sao Paulo Congonhas
Region Brazil
Timezone America/Sao_Paulo (UTC-3.0)
Stats Elevation 2,631 ft / 802 m (AMSL)
Location -23.626693° -46.655377°
Runways 2
Magnetic Variation 21.349° W

METAR

SBSP 252000Z 16010KT 9999 FEW011 SCT045 18/14 Q1024

Decode

TAF

TAF SBSP 251500Z 2518/2618 14005KT 9999 SCT020TX22/2518Z TN15/2609Z BECMG 2520/2522 BKN010 BECMG 2602/2604 10003KT PROB30 2607/2611 6000 BKN007 BECMG 2613/2615 15006KT 9999 SCT020 RMK PGH

Decode

Destination Runways

ID Width Length Bearing (true) Bearing (mag) Surface Threshold Offset Overrun Length
17L 147 ft / 45 m 4,726 ft / 1,441 m 147.28° 168.63° Asphalt 0 ft / 0 m 220 ft / 67 m
17R 147 ft / 45 m 6,406 ft / 1,953 m 147.39° 168.74° Asphalt 413 ft / 126 m 0 ft / 0 m
35L 147 ft / 45 m 6,406 ft / 1,953 m 327.38° 348.73° Asphalt 200 ft / 61 m 0 ft / 0 m
35R 147 ft / 45 m 4,726 ft / 1,441 m 327.28° 348.63° Asphalt 0 ft / 0 m 0 ft / 0 m

Approach Navaids

Runway Type Ident Frequency Range Bearing (true) Bearing (mag) Slope Elevation
17R Localiser ISP 109.30 MHz 18 nm / 33 km 147.03° 168.38° - 2,631 ft / 802 m (AMSL)
17R Glidescope ISP 109.30 MHz 10 nm / 19 km 147.38° 168.73° 2.90° 2,631 ft / 802 m (AMSL)
35L Localiser ICO 110.10 MHz 18 nm / 33 km 328.14° 349.49° - 2,631 ft / 802 m (AMSL)

Popular Alternatives